AFR763 TFFR-LFPG

Flight info

Callsign AFR763
Flight time N/A
Altitude 33000
Route CAIRN2F CAIRN DCT CITRS/M084F330 DCT 20N055W 23N050W 31N040W/M084F350 36N030W 4030N02000W DCT BANAL/N0485F360 DCT PETEK DCT LOTEE DCT GATMO DCT NTS UN741 ANG/N0489F300 UN741 TEMTO DCT ROMGO
Aircraft B77W/H-SDE1E2E3FGHIJ2J3J4J5M1RWXY/LB1D1

Departure

Time 2026-04-28 14:50
Airport Maryse Condé International Airport (TFFR)

Arrival

Time N/A
Airport Charles de Gaulle International Airport (LFPG)
Time Latitude Longitude Altitude Speed Heading
2026-04-28 13:59 16.26908 -61.52739 35 ft 0 kts 36°
2026-04-28 14:40 16.26904 -61.52741 35 ft 4 kts 36°
2026-04-28 14:40 16.26883 -61.52757 -41 ft 4 kts 36°
2026-04-28 14:41 16.26861 -61.52770 32 ft 4 kts 359°
2026-04-28 14:41 16.26837 -61.52761 32 ft 4 kts 304°
2026-04-28 14:41 16.26830 -61.52741 32 ft 0 kts 272°
2026-04-28 14:45 16.26831 -61.52767 32 ft 11 kts 272°
2026-04-28 14:45 16.26838 -61.52829 34 ft 13 kts 277°
2026-04-28 14:46 16.26787 -61.52933 33 ft 13 kts 200°
2026-04-28 14:46 16.26698 -61.52954 33 ft 13 kts 193°
2026-04-28 14:46 16.26608 -61.52975 33 ft 13 kts 191°
2026-04-28 14:46 16.26523 -61.53005 32 ft 13 kts 223°
2026-04-28 14:47 16.26509 -61.53094 32 ft 17 kts 274°
2026-04-28 14:47 16.26538 -61.53262 31 ft 31 kts 281°
2026-04-28 14:47 16.26587 -61.53522 31 ft 41 kts 281°
2026-04-28 14:47 16.26640 -61.53812 27 ft 40 kts 281°
2026-04-28 14:48 16.26694 -61.54093 25 ft 39 kts 282°
2026-04-28 14:48 16.26749 -61.54365 20 ft 38 kts 282°
2026-04-28 14:48 16.26795 -61.54617 17 ft 21 kts 280°
2026-04-28 14:48 16.26845 -61.54723 17 ft 9 kts 314°
2026-04-28 14:49 16.26845 -61.54763 19 ft 4 kts 214°
2026-04-28 14:49 16.26822 -61.54749 17 ft 5 kts 117°
2026-04-28 14:49 16.26816 -61.54717 17 ft 5 kts 101°
2026-04-28 14:49 16.26804 -61.54648 17 ft 21 kts 99°
2026-04-28 14:50 16.26722 -61.54187 26 ft 113 kts 101°
2026-04-28 14:50 16.26506 -61.53049 33 ft 205 kts 102°
2026-04-28 14:50 16.26235 -61.51473 1042 ft 210 kts 97°
2026-04-28 14:50 16.26131 -61.50089 2848 ft 190 kts 99°
2026-04-28 14:51 16.25847 -61.48715 3300 ft 208 kts 103°
2026-04-28 14:51 16.25473 -61.47147 3490 ft 238 kts 102°
2026-04-28 14:51 16.25121 -61.45406 4094 ft 250 kts 101°
2026-04-28 14:51 16.24776 -61.43646 4970 ft 252 kts 101°
2026-04-28 14:52 16.24624 -61.41824 5589 ft 258 kts 79°
2026-04-28 14:52 16.25417 -61.40134 6245 ft 263 kts 49°
2026-04-28 14:52 16.26693 -61.38752 6950 ft 267 kts 49°
2026-04-28 14:52 16.27905 -61.37302 7698 ft 270 kts 51°
2026-04-28 14:53 16.29124 -61.35787 8487 ft 272 kts 51°
2026-04-28 14:53 16.29929 -61.34784 9026 ft 274 kts 50°
2026-04-28 14:53 16.31177 -61.33248 9729 ft 280 kts 50°
2026-04-28 14:53 16.32449 -61.31693 10413 ft 285 kts 50°
2026-04-28 14:54 16.34235 -61.29519 10800 ft 313 kts 50°
2026-04-28 14:54 16.35210 -61.28329 10911 ft 329 kts 50°
2026-04-28 14:54 16.36756 -61.26446 11078 ft 352 kts 50°
2026-04-28 14:54 16.38378 -61.24475 11379 ft 368 kts 50°
2026-04-28 14:55 16.40073 -61.22417 11912 ft 378 kts 50°
2026-04-28 14:55 16.41804 -61.20316 12482 ft 386 kts 49°
2026-04-28 14:55 16.43579 -61.18163 13041 ft 395 kts 49°
2026-04-28 14:55 16.45389 -61.15966 13620 ft 402 kts 49°
2026-04-28 14:56 16.47199 -61.13771 14187 ft 409 kts 49°
2026-04-28 14:56 16.49065 -61.11505 14761 ft 413 kts 49°
2026-04-28 14:56 16.50950 -61.09215 15333 ft 418 kts 49°
2026-04-28 14:56 16.52859 -61.06896 15901 ft 424 kts 49°
2026-04-28 14:57 16.54792 -61.04547 16486 ft 428 kts 50°
2026-04-28 14:57 16.56737 -61.02181 17071 ft 432 kts 50°
2026-04-28 14:57 16.58711 -60.99778 17674 ft 436 kts 50°
2026-04-28 14:57 16.60690 -60.97370 18233 ft 441 kts 50°
2026-04-28 14:58 16.62676 -60.94954 18716 ft 445 kts 50°
2026-04-28 14:58 16.64703 -60.92486 19216 ft 449 kts 50°
2026-04-28 14:58 16.66736 -60.90010 19711 ft 453 kts 50°
2026-04-28 14:58 16.68797 -60.87498 20175 ft 457 kts 49°
2026-04-28 14:59 16.70875 -60.84965 20624 ft 461 kts 49°
2026-04-28 14:59 16.72972 -60.82408 21061 ft 466 kts 49°
2026-04-28 14:59 16.75088 -60.79826 21505 ft 470 kts 49°
2026-04-28 14:59 16.77223 -60.77222 21947 ft 474 kts 49°
2026-04-28 15:00 16.79378 -60.74590 22371 ft 478 kts 49°
2026-04-28 15:00 16.81525 -60.71969 22798 ft 482 kts 49°
2026-04-28 15:00 16.83713 -60.69295 23200 ft 487 kts 49°
2026-04-28 15:00 16.85930 -60.66584 23607 ft 491 kts 49°
2026-04-28 15:01 16.88156 -60.63862 23938 ft 495 kts 49°
2026-04-28 15:01 16.90396 -60.61122 24306 ft 497 kts 49°
2026-04-28 15:01 16.92652 -60.58360 24679 ft 499 kts 50°
2026-04-28 15:01 16.94834 -60.55529 25050 ft 502 kts 53°
2026-04-28 15:02 16.96897 -60.52571 25401 ft 504 kts 55°
2026-04-28 15:02 16.98906 -60.49553 25745 ft 507 kts 55°
2026-04-28 15:02 17.00910 -60.46507 26077 ft 510 kts 55°
2026-04-28 15:02 17.02909 -60.43488 26397 ft 513 kts 55°
2026-04-28 15:03 17.04968 -60.40414 26716 ft 516 kts 54°
2026-04-28 15:03 17.07043 -60.37347 27041 ft 518 kts 54°
2026-04-28 15:03 17.09142 -60.34267 27359 ft 521 kts 54°
2026-04-28 15:03 17.11256 -60.31175 27701 ft 524 kts 54°
2026-04-28 15:04 17.13381 -60.28070 28013 ft 526 kts 54°
2026-04-28 15:04 17.15515 -60.24952 28332 ft 528 kts 54°
2026-04-28 15:04 17.17660 -60.21812 28625 ft 530 kts 54°
2026-04-28 15:04 17.19807 -60.18666 28913 ft 532 kts 54°
2026-04-28 15:05 17.21962 -60.15506 29180 ft 535 kts 54°
2026-04-28 15:05 17.24105 -60.12361 29433 ft 537 kts 54°
2026-04-28 15:05 17.26275 -60.09174 29688 ft 539 kts 54°
2026-04-28 15:05 17.28458 -60.05966 29922 ft 541 kts 54°
2026-04-28 15:06 17.30644 -60.02753 30224 ft 541 kts 54°
2026-04-28 15:06 17.32824 -59.99547 30525 ft 540 kts 54°
2026-04-28 15:06 17.34996 -59.96351 30874 ft 539 kts 54°
2026-04-28 15:06 17.37171 -59.93150 31183 ft 538 kts 54°
2026-04-28 15:07 17.39338 -59.89957 31484 ft 538 kts 54°
2026-04-28 15:07 17.41500 -59.86773 31786 ft 537 kts 54°
2026-04-28 15:07 17.43639 -59.83620 32072 ft 537 kts 54°
2026-04-28 15:07 17.45808 -59.80422 32370 ft 537 kts 54°
2026-04-28 15:08 17.47970 -59.77232 32677 ft 536 kts 54°
2026-04-28 15:08 17.50128 -59.74047 32989 ft 536 kts 54°
2026-04-28 15:08 17.52290 -59.70855 33049 ft 539 kts 54°
2026-04-28 15:09 17.56628 -59.64443 33093 ft 537 kts 54°
2026-04-28 15:09 17.60933 -59.58076 33094 ft 533 kts 54°
2026-04-28 15:10 17.65213 -59.51738 33103 ft 531 kts 54°
2026-04-28 15:10 17.69480 -59.45414 33108 ft 532 kts 54°
2026-04-28 15:11 17.73736 -59.39101 33114 ft 533 kts 54°
2026-04-28 15:11 17.78028 -59.32727 33109 ft 535 kts 54°
2026-04-28 15:12 17.82331 -59.26332 33111 ft 537 kts 54°
2026-04-28 15:12 17.86642 -59.19918 33108 ft 537 kts 54°
2026-04-28 15:13 17.90954 -59.13497 33108 ft 538 kts 54°
2026-04-28 15:13 17.95235 -59.07114 33108 ft 538 kts 54°
2026-04-28 15:14 17.99543 -59.00672 33106 ft 537 kts 55°
2026-04-28 15:14 18.03313 -58.93912 33112 ft 537 kts 62°
2026-04-28 15:15 18.06799 -58.86969 33111 ft 537 kts 62°
2026-04-28 15:15 18.10306 -58.80032 33104 ft 537 kts 61°
2026-04-28 15:16 18.13847 -58.73125 33106 ft 537 kts 61°
2026-04-28 15:16 18.17386 -58.66252 33109 ft 537 kts 61°
2026-04-28 15:17 18.20944 -58.59336 33109 ft 537 kts 61°
2026-04-28 15:17 18.24499 -58.52409 33112 ft 537 kts 61°
2026-04-28 15:18 18.28049 -58.45481 33113 ft 538 kts 61°
2026-04-28 15:18 18.31597 -58.38549 33113 ft 538 kts 61°
2026-04-28 15:19 18.35140 -58.31620 33112 ft 538 kts 61°
2026-04-28 15:19 18.38683 -58.24682 33113 ft 538 kts 61°
2026-04-28 15:20 18.42223 -58.17743 33117 ft 538 kts 61°
2026-04-28 15:20 18.45763 -58.10797 33116 ft 538 kts 61°
2026-04-28 15:21 18.49279 -58.03888 33114 ft 538 kts 61°
2026-04-28 15:21 18.52819 -57.96927 33112 ft 538 kts 61°
2026-04-28 15:22 18.56363 -57.89948 33116 ft 539 kts 61°